sat.trackr.live / text

‹ back to catalog

ONEWEB-0270

NORAD 48988 · 2021-060X

PAYLOAD ACTIVE UNKNOWN

§ Identity

Operator
Country
UK
Launch date
2021-07-01
Launch site
VOSTO
Launch vehicle
Mass (kg)
RCS (m²)

Purposes: comms

External: N2YO · Heavens-Above · Gunter

§ Orbital elements

Epoch: 2026-09-10T03:33:17.001216Z

Period
109.37 min
Inclination
87.9129°
Eccentricity
0.0002055
Mean motion
13.16593073 rev/d
Perigee alt
1,196.2 km
Apogee alt
1,199.3 km
Semi-major
7,575.9 km
B*
-1.7452e-4
RAAN
211.9094°
Arg perigee
69.6575°
Mean anomaly
290.4777°
Rev number
25,084

§ Raw data

ONEWEB-02701 48988U 21060X   26253.14811344 -.00000054  00000+0 -17452-3 0  99922 48988  87.9129 211.9094 0002055  69.6575 290.4777 13.16593073250844

JSON: /api/v1/satellites/48988 · /tle

For live sub-satellite position, see the globe view (requires WebGL).

§ Visibility from observer

Set your observer location to see the next 7 days of passes ≥ 10°. The values pass through the URL so the page stays shareable.

No JS? Fill the form by hand. The geolocation button needs JavaScript.